Regional Weather Roundup
Issued by NWS State College, PA

Home | Current Version | Previous Version | Text Only | Print | Product List | Glossary On
Versions: 1 2 3 4 5 6 7 8 9 10 11 12 13 14 15 16 17 18 19 20 21 22 23 24 25 26 27 28 29 30 31 32 33 34 35 36 37 38 39 40 41 42 43 44 45 46 47 48 49 50
000
ASUS41 KCTP 270310
RWRCTP

REGIONAL WEATHER ROUNDUP
NATIONAL WEATHER SERVICE STATE COLLEGE PA
1100 PM EDT THU MAR 26 2015

Note: "fair" indicates few or no clouds below 12,000 feet with no
significant weather and/or obstructions to visibility.

* = STATION THAT DOES NOT REPORT PRECIPITATION /E.G. RAIN...SNOW...ETC/
    THUNDER OR FOG.

PAZ002>004-007>009-013>016-020>023-029>032-270400-
WESTERN PENNSYLVANIA

CITY           SKY/WX    TMP DP  RH WIND       PRES   REMARKS
ERIE           CLOUDY    34  32  92 SW6       29.88S FOG
MEADVILLE      CLOUDY    33  31  92 W7        29.84F FOG
FRANKLIN*      CLOUDY    34  28  80 W8        29.86S
NEW CASTLE     CLOUDY    35  34  96 CALM      29.89S
BEAVER COUNTY  NOT AVBL
BUTLER*        CLOUDY    36  34  93 NW8       29.87S
PITTSBURGH INT CLOUDY    38  35  89 NW10      29.87R
PITTSBURGH     LGT RAIN  38  33  82 NW8       29.86R
INDIANA*       CLOUDY    37  36  93 NW6       29.86S
LATROBE        NOT AVBL
WASHINGTON CO* CLOUDY    39  36  87 W6        29.89R
$$

PAZ004>006-010>012-017>019-024>028-033>037-041-042-045-046-049>053-270400-
CENTRAL PENNSYLVANIA

CITY           SKY/WX    TMP DP  RH WIND       PRES   REMARKS
BRADFORD       CLOUDY    32  30  92 NW6       29.78F
DUBOIS         CLOUDY    36  32  85 NW7       29.80F
CLEARFIELD     CLOUDY    37  33  85 NW9       29.79F
JOHNSTOWN      FOG       37  36  96 NW14      29.77S VSB 1/2
ALTOONA        CLOUDY    41  35  79 NW8       29.80R
STATE COLLEGE  CLOUDY    40  35  83 NW9       29.79F
WILLIAMSPORT   CLOUDY    39  37  92 SW3       29.80R
SELINSGROVE    CLOUDY    43  37  79 NW5       29.78S
FT INDIANTOWN  DRIZZLE   45  38  79 VRB6      29.74R
CAPITAL CITY   LGT RAIN  46  39  76 N8        29.75S
HARRISBURG     LGT RAIN  46  39  76 NW13      29.75S
YORK           CLOUDY    46  40  79 NW9       29.76R
$$

PAZ038>040-043-044-047-048-054-055-060>062-067>071-270400-
EASTERN PENNSYLVANIA

CITY           SKY/WX    TMP DP  RH WIND       PRES   REMARKS
SCRANTON       CLOUDY    40  36  86 N9        29.73S
MOUNT POCONO   CLOUDY    37  34  89 N9G17     29.67S
ALLENTOWN      CLOUDY    45  40  82 NW7       29.71R
QUAKERTOWN*    CLOUDY    45  43  93 NW7       29.70S
READING        MOCLDY    45  39  79 NW15      29.73R
LANCASTER      CLOUDY    46  41  82 NW8       29.73S
COATESVILLE    CLOUDY    48  46  93 NW13      29.71R
POTTSTOWN      RAIN      48  44  86 N13       29.71R
BLUE BELL      CLOUDY    52  46  82 NW7       29.67R
DOYLESTOWN     CLOUDY    46  45  96 N10       29.66S
WILLOW GROVE   NOT AVBL
NORTH PHILA    LGT RAIN  54  47  77 NW9       29.68S
PHILADELPHIA   LGT RAIN  54  52  93 N5        29.67S
$$


USA.gov is the U.S. government's official web portal to all federal, state and local government web resources and services.